{"data":{"norad_id":55594,"epoch":"2026-09-20T22:04:01.584192Z","epoch_age_seconds":64165,"freshness":"FRESH","line1":"1 55594U 23020AB  26263.91946278 -.00000358  00000+0 -34983-5 0  9999","line2":"2 55594  43.0045 342.3935 0001398 270.2873  89.7819 15.27579526198778","mean_motion":15.27579526,"eccentricity":0.0001398,"inclination_deg":43.0045,"raan_deg":342.3935,"arg_perigee_deg":270.2873,"mean_anomaly_deg":89.7819,"bstar":-3.4983e-6,"rev_number":19877,"period_min":94.266777964135,"perigee_km":482.09132135189,"apogee_km":484.00970938119,"semimajor_km":6861.1875153665,"source":"CELESTRAK","updated_at":"2026-09-21T09:00:33.269544Z"}}